Vorticity
12 9 11 -11 13 6 30 16 4 2 0 -0 -1 -1 1 1 2 3 -1 -1 1 4
19 18 17 26 20 7 15 21 5 5 2 1 1 4 1 -0 1 4 4 2 2 5
9 10 11 11 12 13 13 13 21 7 2 4 4 4 4 2 2 5 2 3 4 14
5 6 6 6 7 8 8 8 8 9 5 5 5 5 5 4 4 3 5 9 -3 17
5 5 5 6 6 5 6 6 6 7 6 6 6 5 5 4 1 -2 2 17 9 3
6 4 6 -2 9 3 9 6 8 8 7 7 7 7 6 7 6 19 10 -7 1 4
14 0 4 6 3 -15 23 -6 -17 13 7 5 6 8 7 -0 2 25 24 10 16 9
14 16 11 5 8 0 21 40 18 9 13 14 15 10 10 6 -1 7 7 4 7 3
15 15 14 21 14 12 3 3 -1 -1 1 3 6 9 13 18 11 12 5 -4 7 2
10 6 7 8 9 15 20 8 4 5 7 5 5 3 2 5 9 6 9 12 10 5
2 7 8 8 6 12 13 12 12 13 10 7 4 4 6 5 10 8 12 4 9 10
3 1 8 11 11 6 10 10 8 7 9 8 6 7 7 20 27 17 17 22 14 27
3 2 3 11 13 8 9 12 11 7 6 4 9 7 20 13 12 13 8 7 8 -2
2 2 4 10 15 11 8 9 8 7 8 9 16 21 10 8 9 6 0 6 6 6
Height
3065 3068 3072 3076 3080 3085 3088 3094 3099 3104 3108 3112 3116 3119 3121 3123 3125 3126 3127 3128 3127 3128
3063 3066 3069 3073 3077 3082 3087 3092 3098 3102 3106 3108 3111 3113 3116 3117 3119 3120 3120 3120 3120 3118
3064 3066 3069 3071 3074 3078 3083 3088 3093 3097 3100 3102 3105 3107 3109 3111 3113 3113 3113 3112 3112 3111
3063 3066 3068 3071 3074 3077 3080 3083 3087 3091 3094 3096 3099 3102 3103 3105 3105 3105 3104 3103 3102 3100
3062 3064 3067 3070 3073 3076 3078 3081 3084 3086 3089 3091 3093 3095 3095 3096 3096 3095 3095 3094 3090 3089
3059 3062 3065 3068 3070 3071 3074 3077 3079 3081 3083 3086 3087 3088 3087 3086 3086 3086 3086 3084 3080 3080
3054 3056 3059 3062 3063 3064 3066 3068 3071 3074 3076 3077 3078 3078 3077 3077 3078 3075 3074 3075 3073 3072
3049 3051 3054 3055 3057 3059 3059 3060 3064 3065 3066 3067 3068 3069 3070 3069 3068 3066 3066 3065 3064 3062
3043 3045 3047 3049 3050 3052 3055 3056 3058 3058 3058 3059 3060 3061 3060 3059 3058 3057 3056 3055 3054 3053
3038 3039 3041 3042 3043 3045 3047 3049 3050 3051 3052 3052 3052 3052 3051 3050 3049 3047 3047 3045 3044 3044
3032 3033 3035 3036 3038 3038 3039 3040 3041 3042 3043 3043 3043 3043 3043 3042 3039 3037 3036 3035 3034 3033
3025 3027 3028 3029 3030 3031 3032 3033 3034 3034 3035 3035 3034 3034 3033 3030 3028 3027 3027 3025 3024 3023
3017 3019 3020 3021 3022 3023 3024 3025 3025 3025 3025 3024 3023 3021 3020 3020 3019 3019 3018 3017 3014 3013
3009 3011 3012 3013 3014 3015 3015 3015 3015 3015 3015 3014 3013 3011 3012 3012 3010 3009 3008 3006 3005 3003